Location: River House Observatory
(37.8577°N, 76.3548°W)
Time: 23:12:20
(UTC-04:00)

Daily predictions for brighter satellites

Satellite Brightness Start Highest point End
(mag) Time Altitude Azimuth Time Altitude Azimuth Time Altitude Azimuth
Cosmos 1076 Rocket 3.8 19:10:32 10° N 19:14:44 47° E 19:18:56 10° SSE
ATLAS 5 CENTAUR R/B 2.1 19:12:40 10° SW 19:17:23 75° WNW 19:22:31 10° NNE
ASTRO E2 4.2 19:14:03 10° WSW 19:17:33 28° S 19:21:02 10° SE
MSX 4.0 19:11:51 10° SSE 19:17:35 84° WSW 19:23:23 10° NNW
Cosmos 1766 Rocket 3.9 19:15:45 10° N 19:19:56 43° E 19:24:03 10° SSE
Abrixas 2.6 19:17:32 10° WSW 19:20:31 73° NNW 19:23:32 10° NE
Cosmos-2242 3.5 19:18:38 10° SSE 19:22:42 39° E 19:26:48 10° NNE
Cosmos 2056 Rocket 4.5 19:20:20 10° NNW 19:25:38 54° WSW 19:30:53 10° S
CZ-2C R/B 4.2 19:22:35 10° SSW 19:27:06 36° W 19:31:31 10° NNW
SJ-6B 3.0 19:23:29 10° SSE 19:27:21 51° ENE 19:31:19 10° N
HJ-1C 4.5 19:27:30 10° SE 19:30:18 25° ENE 19:33:08 10° NNE
ATLAS CENTAUR R/B 3.6 19:26:04 10° SW 19:30:34 79° NW 19:44:54 10° NE
USA 215 3.7 19:25:24 10° ENE 19:31:31 41° SE 19:37:35 10° SSW
FREGAT/IRIS 3.1 19:29:23 10° SE 19:32:17 39° ENE 19:35:12 10° N
Cosmos 1544 3.6 19:29:43 10° SSE 19:33:10 36° E 19:36:38 10° NNE
Cosmos 1484 Rocket 3.3 19:30:25 10° S 19:34:12 63° W 19:38:06 10° NNW
Cosmos 1346 4.0 19:32:02 10° NNE 19:34:39 27° ENE 19:37:14 10° SE
SAR-Lupe-4 3.5 19:33:07 10° SSE 19:36:41 81° ENE 19:40:16 10° N
Cosmos 724 4.4 19:30:59 10° SSW 19:36:54 85° WNW 19:43:01 10° NNE
METEOR-M 4.4 19:32:00 10° SE 19:37:06 48° ENE 19:42:15 10° N
OAO 3 Rocket 3.5 19:38:31 10° W 19:43:09 57° S 19:46:49 16° ESE
Cosmos 1758 3.3 19:39:07 10° S 19:43:11 82° E 19:47:19 10° N
Cosmos 1464 Rocket 4.2 19:37:45 10° S 19:44:00 78° W 19:50:12 10° N
Cosmos 2034 Rocket 4.0 19:37:56 10° S 19:44:11 78° E 19:50:32 10° N
SL-16 R/B 4.0 19:43:02 10° WSW 19:48:07 33° WNW 19:53:15 10° N
CZ-4B DEB 4.3 19:49:16 19° ENE 19:49:16 19° ENE 19:51:32 10° NNE
Cosmos 1408 Rocket 3.7 19:46:28 10° N 19:50:48 75° W 19:55:05 10° S
Cosmos 1842 Rocket 4.0 19:47:16 10° SSE 19:51:15 38° E 19:55:17 10° NNE
Cosmos 1500 Rocket 4.2 19:47:57 10° NNE 19:52:00 34° ENE 19:55:39 12° SE
FENGYUN 3A 4.2 19:50:59 11° SE 19:55:41 36° ENE 20:00:33 10° N
Meteor 1-21 Rocket 4.1 19:50:55 10° N 19:56:29 77° E 20:02:01 10° SSE
Spot 1 4.1 19:54:26 10° SSE 19:59:07 78° ENE 20:03:34 10° N
Helios 1A 3.0 19:55:27 10° SSE 19:59:34 57° ENE 20:03:43 10° N
CZ-2D R/B 4.1 20:06:27 30° ENE 20:06:38 30° ENE 20:10:04 10° N
Meteor 1-29 2.8 20:06:49 10° NNE 20:10:20 77° ESE 20:13:47 10° S
GPS 2-04 Rocket1 2.5 20:11:02 10° WSW 20:14:27 57° S 20:15:05 47° SE
H-2A R/B 3.2 20:17:05 39° ENE 20:17:05 39° ENE 20:20:38 10° N
ASTEX 1 3.3 20:13:50 10° NNE 20:18:42 62° E 20:23:31 10° S
Resurs 1-3 3.5 20:15:49 10° SSE 20:20:12 87° ENE 20:24:37 10° NNW
Cosmos 839 Rocket 4.5 20:13:15 10° NNW 20:20:34 50° NE 20:23:23 31° ESE
Cosmos 1943 Rocket 3.3 20:16:38 10° N 20:21:05 24° ENE 20:21:11 24° ENE
Cosmos 1743 Rocket 3.7 20:17:12 10° N 20:21:37 74° W 20:25:59 10° S
ALOS 2.2 20:20:15 23° SSE 20:23:07 66° ENE 20:27:45 10° N
Cosmos 2251 Rocket 3.7 20:20:44 10° S 20:25:37 43° ESE 20:30:34 10° NNE
Resurs 01 Rocket 2.2 20:23:58 10° S 20:28:20 57° W 20:32:44 10° NNW
Cosmos 1943 3.1 20:22:43 10° SSW 20:28:22 87° ESE 20:34:01 10° NNE
Cosmos 2369 Rocket 2.2 20:23:18 10° NNW 20:28:55 62° ENE 20:31:02 37° SE
Helios 1B rocket 3.3 20:26:24 10° N 20:30:24 49° WNW 20:34:22 10° SSW
CENTAUR R/B 2.5 20:24:57 10° SW 20:30:55 84° WNW 20:37:42 10° NNE
Gbstr 26 Del rocket 3.5 20:29:07 10° WSW 20:33:29 65° NW 20:36:27 25° NE
ISS -1.4 20:34:15 10° W 20:37:00 25° NNW 20:37:50 22° N
Cosmos 1733 3.6 20:35:46 10° SSW 20:39:36 64° W 20:43:27 10° N
BREEZE-M DEB (TANK) 4.0 20:28:11 10° WNW 20:39:53 45° N 20:41:39 33° NE
Cosmos 2263 4.3 20:35:02 10° NNW 20:40:43 56° ENE 20:41:31 51° E
BREEZE-M DEB (TANK) 4.5 20:26:19 10° SSW 20:44:25 46° SE 20:46:03 40° ESE
Cosmos 1470 4.0 20:43:08 10° SSW 20:46:49 41° W 20:50:30 10° N
Cosmos 2279 Rocket 4.0 20:48:02 53° ESE 20:48:29 54° E 20:54:29 10° NNE
Cosmos 1674 4.0 20:45:40 10° NNW 20:49:20 41° W 20:51:28 21° SSW
GP-B 3.1 20:48:46 10° N 20:52:57 78° NNW 20:52:57 78° NNW
Cosmos 1092 Rocket 4.5 20:53:09 10° NNW 20:59:11 58° W 21:05:11 10° S
Cosmos 2151 3.7 20:58:21 10° NNW 21:01:36 50° NNW 21:01:36 50° NNW
Envisat 4.5 21:05:36 25° NNE 21:05:36 25° NNE 21:07:55 10° N
SL-24 R/B - RUBIN 2 4.4 20:59:38 10° NNW 21:06:16 68° ENE 21:06:20 68° ENE
Meteor 2-1 Rocket 4.2 21:08:30 76° NE 21:08:30 76° NE 21:13:59 10° N
Cosmos 1655 Rocket 3.8 21:03:25 10° N 21:09:40 84° E 21:10:10 76° SSE
Cosmos 2026 Rocket 3.9 21:04:08 10° N 21:10:16 86° W 21:11:21 63° S
Meteor 1-16 Rocket 4.3 21:05:22 10° SSW 21:10:36 67° W 21:15:56 10° N
USA 215 3.8 21:09:20 15° NE 21:14:35 54° NW 21:20:53 10° WSW
Meteor 1-11 4.5 21:19:28 10° NNW 21:25:12 65° W 21:25:15 65° W
Cosmos 1943 Rocket 3.8 21:59:43 10° NW 22:02:44 30° NW 22:02:44 30° NW
